STARLINK-1697

decayed
NORAD ID: 46546 Int'l Des: 2020-070 Owner: SPXS Country: US Constellation: starlink
LEOCIRCULAR
Group

About STARLINK-1697

Description loading...

Altitude History

Altitude vs Time

uPlot chart will show altitude changes over time

Two-Line Element Set

1 46546U 20070Q 25095.75456251 .07598140 12239-4 12494-2 0 9997
2 46546 53.0272 200.6828 0009908 309.4239 130.8056 16.32511540249004
Epoch: Apr 5, 2025 • Age: 3915 hours

Current Status

Position data unavailable
Launch Date Oct 6, 2020
Age 4.9 years
Decay Date Apr 6, 2025
Type internet

Technical Details

Classification Payload
Mass 260.00 kg
Dry Mass 248.00 kg
Total Mass 260.00 kg
Length 0.20 m
Diameter 2.80 m
Span 9.00 m
Shape Box + pan
Manufacturer SPXS
Bus Type Starlink
Phase Status Unknown Transfer Status
Owner/State SPXS/US

Large Constellations

Loading constellations...